This demonstration page uses our WeatherBlox Daily Observations layout. Learn more.

Hourly Observations for December 25, 2016

Temp ( °F °C ) Dew Point ( °F °C ) Humidity (%) Winds ( mph kmh ) Pressure ( in mb ) Visibility ( mi km ) Precip ( " mm )
12:27 am 00:27 Cloudy with Mist and Fog 36 2 34 1 93 93 ESE 12 19 30.09 1019 2 3.21868 0 0
12:54 am 00:54 Cloudy with Mist and Fog 35 1.7 34 1.1 96 96 SE 9 15 30.07 1018 2 3.21868 0 0
1:06 am 01:06 Cloudy with Mist and Fog 36 2 36 2 100 100 SE 10 17 30.09 1019 1.75 2.816345 0 0
1:30 am 01:30 Cloudy with Mist and Fog 36 2 36 2 100 100 ESE 10 17 30.09 1019 2 3.21868 0 0
1:54 am 01:54 Cloudy with Mist and Fog 35 1.7 35 1.7 100 100 ESE 10 17 30.05 1018 2 3.21868 0 0
2:54 am 02:54 Cloudy with Mist and Fog 36 2.2 35 1.7 97 97 ESE 10 17 30.03 1017 2.5 4.02335 0 0
3:10 am 03:10 Cloudy with Mist and Fog 36 2 36 2 100 100 ESE 13 20 30.06 1018 3 4.82802 0 0
3:54 am 03:54 Cloudy with Mist and Fog 37 2.8 36 2.2 96 96 SE 14 22 30 1016 5 8.0467 0 0
4:54 am 04:54 Cloudy with Mist and Fog 37 2.8 36 2.2 96 96 ESE 13 20 29.98 1015 4 6.43736 0 0
5:11 am 05:11 Cloudy with Mist and Fog 37 2.8 37 2.8 100 100 ESE 10 17 29.97 1015 2 3.21868 0 0
5:54 am 05:54 Cloudy with Mist and Fog 37 2.8 37 2.8 100 100 E 12 19 29.92 1013 2 3.21868 0 0
6:16 am 06:16 Cloudy with Mist and Fog 37 3 37 3 100 100 ESE 10 17 29.91 1013 1.75 2.816345 0 0
6:54 am 06:54 Cloudy with Rain 38 3.3 38 3.3 100 100 ESE 9 15 29.89 1012 1.25 2.011675 0.02 0.508
7:21 am 07:21 Cloudy with Light Rain 39 3.9 38 3.3 96 96 ESE 10 17 29.91 1013 3 4.82802 0.18 4.572
7:30 am 07:30 Cloudy with Light Rain 39 4 37 3 93 93 ESE 12 19 29.91 1013 4 6.43736 0 0
7:54 am 07:54 Cloudy with Light Rain 39 3.9 38 3.3 96 96 ESE 9 15 29.89 1012 4 6.43736 0.19 4.826
8:23 am 08:23 Cloudy with Mist and Fog 40 4.4 39 3.9 97 97 ESE 15 24 29.88 1012 3 4.82802 0 0.0254
8:31 am 08:31 Cloudy with Light Rain 40 4.4 39 3.9 97 97 ESE 13 20 29.85 1011 2.5 4.02335 0 0.0254
8:49 am 08:49 Cloudy with Light Rain 39 4 39 4 100 100 ESE 13 20 29.85 1011 1.75 2.816345 0.02 0.508
8:54 am 08:54 Cloudy with Nearby Thunderstorms 40 4.4 40 4.4 100 100 ESE 13 20 29.85 1011 1.5 2.41401 0.02 0.508
9:04 am 09:04 Cloudy with Light Thunderstorms 41 5 39 4 93 93 ESE 9 15 29.85 1011 1.75 2.816345 0 0
9:08 am 09:08 Cloudy with Light Thunderstorms 41 5 40 4.4 96 96 ESE 13 20 29.85 1011 3 4.82802 0.03 0.762
9:15 am 09:15 Cloudy with Nearby Thunderstorms 41 5 40 4.4 96 96 E 9 15 29.83 1010 2.5 4.02335 0.03 0.762
9:24 am 09:24 Cloudy with Nearby Thunderstorms 41 5 39 4 93 93 ESE 13 20 29.83 1010 1.75 2.816345 0 0
9:29 am 09:29 Cloudy with Mist and Fog 41 5 41 5 100 100 ESE 10 17 29.83 1010 2 3.21868 0.03 0.762
9:38 am 09:38 Cloudy with Mist and Fog 43 6 41 5 93 93 ESE 15 24 29.83 1010 1.75 2.816345 0 0
9:54 am 09:54 Cloudy with Mist and Fog 42 5.6 41 5 96 96 ESE 14 22 29.8 1009 1.5 2.41401 0.03 0.762
10:16 am 10:16 Cloudy with Mist and Fog 43 6 43 6 100 100 SE 13 20 29.8 1009 2 3.21868 0 0
10:33 am 10:33 Cloudy with Nearby Thunderstorms 43 6.1 42 5.6 97 97 SE 17 28 29.8 1009 1.75 2.816345 0.01 0.254
10:44 am 10:44 Cloudy with Heavy Thunderstorms 45 7 43 6 93 93 ESE 20 31 29.77 1008 0.75 1.207005 0 0
10:54 am 10:54 Cloudy with Light Thunderstorms 44 6.7 44 6.7 100 100 ESE 16 26 29.75 1007 1.25 2.011675 0.37 9.398
11:00 am 11:00 Cloudy with Light Thunderstorms 45 7 43 6 93 93 ESE 16 26 29.77 1008 3 4.82802 0 0
11:06 am 11:06 Cloudy with Nearby Thunderstorms 45 7.2 44 6.7 97 97 ESE 15 24 29.71 1006 2.5 4.02335 0 0.0254
11:11 am 11:11 Cloudy with Light Rain 45 7 45 7 100 100 SE 15 24 29.74 1007 1.75 2.816345 0 0
11:30 am 11:30 Cloudy with Light Rain 48 9 46 8 94 94 SE 21 33 29.71 1006 3 4.82802 0 0
11:39 am 11:39 Cloudy with Light Rain 48 8.9 47 8.3 96 96 SE 22 35 29.68 1005 2.5 4.02335 0.02 0.508
11:54 am 11:54 Cloudy with Light Rain 48 8.9 47 8.3 96 96 SE 21 33 29.68 1005 2 3.21868 0.03 0.762
12:54 pm 12:54 Cloudy with Mist and Fog 52 11.1 51 10.6 97 97 SE 18 30 29.61 1003 2 3.21868 0 0.0254
1:01 pm 13:01 Cloudy with Mist and Fog 54 12 52 11 94 94 SE 20 31 29.59 1002 3 4.82802 0 0
1:54 pm 13:54 Cloudy with Mist and Fog 58 14.4 56 13.3 93 93 SSE 22 35 29.52 1000 3 4.82802 0 0
2:54 pm 14:54 Cloudy 59 15 57 13.9 93 93 SSE 24 39 29.45 997 8 12.87472 0 0.0254
2:58 pm 14:58 Cloudy 59 15 57 14 94 94 SSE 25 41 29.44 997 8 12.87472 0 0
3:05 pm 15:05 Cloudy with Light Rain 56 13.3 52 11.1 87 87 SW 33 54 29.53 1000 2.5 4.02335 0 0.0254
3:07 pm 15:07 Cloudy with Rain 52 11.1 49 9.4 89 89 SW 30 48 29.56 1001 1 1.60934 0 0.0254
3:11 pm 15:11 Cloudy with Heavy Rain 52 11 48 9 88 88 SW 22 35 29.56 1001 0.75 1.207005 0 0
3:15 pm 15:15 Cloudy with Rain 52 11 48 9 88 88 SSW 21 33 29.53 1000 1 1.60934 0 0
3:22 pm 15:22 Cloudy with Light Rain 51 10.6 48 8.9 89 89 SSW 17 28 29.56 1001 3 4.82802 0.16 4.064
3:54 pm 15:54 Cloudy with Light Rain 50 10 47 8.3 89 89 S 14 22 29.54 1000 3 4.82802 0.21 5.334
4:54 pm 16:54 Cloudy with Light Rain 49 9.4 46 7.8 90 90 SSE 17 28 29.51 999 10 16.0934 0.04 1.016
5:54 pm 17:54 Mostly Cloudy 48 8.9 43 6.1 83 83 S 24 39 29.48 998 10 16.0934 0.01 0.254
6:54 pm 18:54 Clear 48 8.9 41 5 77 77 S 22 35 29.48 998 10 16.0934 0 0
7:54 pm 19:54 Clear 48 8.9 38 3.3 68 68 SW 24 39 29.55 1001 10 16.0934 0 0
8:54 pm 20:54 Clear 46 7.8 35 1.7 66 66 SW 21 33 29.57 1001 10 16.0934 0 0
9:54 pm 21:54 Clear 45 7.2 33 0.6 63 63 SW 23 37 29.61 1003 10 16.0934 0 0
10:54 pm 22:54 Clear 40 4.4 27 -2.8 60 60 WSW 28 44 29.69 1005 10 16.0934 0 0
11:54 pm 23:54 Clear 37 2.8 26 -3.3 65 65 WSW 17 28 29.72 1007 10 16.0934 0 0

Powered by AerisWeather